Time,TemperatureF,DewpointF,PressureIn,WindDirection,WindDirectionDegrees,WindSpeedMPH,WindSpeedGustMPH,Humidity,HourlyPrecipIn,Conditions,Clouds,dailyrainin,SoftwareType,DateUTC
2013-02-09 00:00:00,38.3,36.2,29.63,East,90,0.0,0.0,92,0.00,CLR,,0.00,WeatherDisplay:10.37,2013-02-09 08:00:00,
2013-02-09 00:05:00,38.3,36.2,29.63,East,90,0.0,0.0,92,0.00,CLR,,0.00,WeatherDisplay:10.37,2013-02-09 08:05:00,
2013-02-09 00:10:00,38.3,36.2,29.64,East,90,0.0,0.0,92,0.00,CLR,,0.00,WeatherDisplay:10.37,2013-02-09 08:10:00,
2013-02-09 00:15:00,38.3,36.2,29.64,East,90,0.0,0.0,92,0.00,CLR,,0.00,WeatherDisplay:10.37,2013-02-09 08:15:00,
2013-02-09 00:20:00,38.1,36.0,29.63,East,90,0.0,0.0,92,0.00,CLR,,0.00,WeatherDisplay:10.37,2013-02-09 08:20:00,
2013-02-09 00:25:00,38.1,36.0,29.64,SW,225,0.0,0.0,92,0.00,CLR,,0.00,WeatherDisplay:10.37,2013-02-09 08:25:00,
2013-02-09 00:30:00,38.1,36.0,29.64,SW,225,0.0,0.0,92,0.00,CLR,,0.00,WeatherDisplay:10.37,2013-02-09 08:30:00,
2013-02-09 00:35:00,38.1,36.0,29.64,SW,225,0.0,0.0,92,0.00,CLR,,0.00,WeatherDisplay:10.37,2013-02-09 08:35:00,
2013-02-09 00:40:00,38.1,36.0,29.64,SW,225,0.0,0.0,92,0.00,CLR,,0.00,WeatherDisplay:10.37,2013-02-09 08:40:00,
2013-02-09 00:45:00,37.9,35.8,29.64,SW,225,0.0,0.0,92,0.00,CLR,,0.00,WeatherDisplay:10.37,2013-02-09 08:45:00,
2013-02-09 00:50:00,37.9,35.8,29.63,SW,225,0.0,0.0,92,0.00,CLR,,0.00,WeatherDisplay:10.37,2013-02-09 08:50:00,
2013-02-09 00:55:00,37.9,35.8,29.63,SW,225,0.0,0.0,92,0.00,CLR,,0.00,WeatherDisplay:10.37,2013-02-09 08:55:00,
2013-02-09 01:00:00,37.8,35.6,29.63,SW,225,0.0,0.0,92,0.00,CLR,,0.00,WeatherDisplay:10.37,2013-02-09 09:00:00,
2013-02-09 01:05:00,37.8,35.6,29.63,SW,225,0.0,0.0,92,0.00,CLR,,0.00,WeatherDisplay:10.37,2013-02-09 09:05:00,
2013-02-09 01:10:00,37.8,35.6,29.63,SW,225,0.0,0.0,92,0.00,CLR,,0.00,WeatherDisplay:10.37,2013-02-09 09:10:00,
2013-02-09 01:15:00,37.8,35.6,29.64,SW,225,0.0,0.0,92,0.00,CLR,,0.00,WeatherDisplay:10.37,2013-02-09 09:15:00,
2013-02-09 01:20:00,37.8,35.6,29.63,SW,225,0.0,0.0,92,0.00,CLR,,0.00,WeatherDisplay:10.37,2013-02-09 09:20:00,
2013-02-09 01:25:00,37.8,35.6,29.63,SW,225,0.0,0.0,92,0.00,CLR,,0.00,WeatherDisplay:10.37,2013-02-09 09:25:00,
2013-02-09 01:30:00,37.8,35.9,29.63,SW,225,0.0,0.0,93,0.00,CLR,,0.00,WeatherDisplay:10.37,2013-02-09 09:30:00,
2013-02-09 01:35:00,37.8,35.9,29.63,SW,225,0.0,0.0,93,0.00,CLR,,0.00,WeatherDisplay:10.37,2013-02-09 09:35:00,
2013-02-09 01:40:00,37.8,35.9,29.63,SW,225,0.0,0.0,93,0.00,CLR,,0.00,WeatherDisplay:10.37,2013-02-09 09:40:00,
2013-02-09 01:45:00,37.8,35.9,29.63,SW,225,0.0,0.0,93,0.00,CLR,,0.00,WeatherDisplay:10.37,2013-02-09 09:45:00,
2013-02-09 01:50:00,37.9,36.1,29.64,SW,225,0.0,0.0,93,0.00,CLR,,0.00,WeatherDisplay:10.37,2013-02-09 09:50:00,
2013-02-09 01:55:00,37.8,35.9,29.64,SW,225,0.0,0.0,93,0.00,CLR,,0.00,WeatherDisplay:10.37,2013-02-09 09:55:00,
2013-02-09 02:00:00,37.8,35.9,29.64,SW,225,0.0,0.0,93,0.00,CLR,,0.00,WeatherDisplay:10.37,2013-02-09 10:00:00,
2013-02-09 02:06:00,37.8,35.9,29.64,SW,225,0.0,0.0,93,0.00,CLR,,0.00,WeatherDisplay:10.37,2013-02-09 10:06:00,
2013-02-09 02:11:00,37.8,35.9,29.64,SW,225,0.0,0.0,93,0.00,CLR,,0.00,WeatherDisplay:10.37,2013-02-09 10:11:00,
2013-02-09 02:16:00,37.8,35.9,29.64,SW,225,0.0,0.0,93,0.00,CLR,,0.00,WeatherDisplay:10.37,2013-02-09 10:16:00,
2013-02-09 02:21:00,37.8,35.9,29.64,SW,225,0.0,0.0,93,0.00,CLR,,0.00,WeatherDisplay:10.37,2013-02-09 10:21:00,
2013-02-09 02:26:00,37.8,35.9,29.63,SW,225,0.0,0.0,93,0.00,CLR,,0.00,WeatherDisplay:10.37,2013-02-09 10:26:00,
2013-02-09 02:31:00,37.8,35.9,29.63,East,90,0.0,0.0,93,0.00,CLR,,0.00,WeatherDisplay:10.37,2013-02-09 10:31:00,
2013-02-09 02:36:00,37.8,36.2,29.63,East,90,0.0,0.0,94,0.00,CLR,,0.00,WeatherDisplay:10.37,2013-02-09 10:36:00,
2013-02-09 02:41:00,37.8,36.2,29.63,East,90,0.0,0.0,94,0.00,CLR,,0.00,WeatherDisplay:10.37,2013-02-09 10:41:00,
2013-02-09 02:46:00,37.8,36.2,29.62,East,90,0.0,0.0,94,0.00,CLR,,0.00,WeatherDisplay:10.37,2013-02-09 10:46:00,
2013-02-09 02:51:00,37.8,36.2,29.62,East,90,0.0,0.0,94,0.00,CLR,,0.00,WeatherDisplay:10.37,2013-02-09 10:51:00,
2013-02-09 02:56:00,37.8,36.2,29.63,East,90,0.0,0.0,94,0.00,CLR,,0.00,WeatherDisplay:10.37,2013-02-09 10:56:00,
2013-02-09 03:01:00,37.8,36.2,29.62,NE,45,0.0,0.0,94,0.00,CLR,,0.00,WeatherDisplay:10.37,2013-02-09 11:01:00,
2013-02-09 03:06:00,37.8,36.2,29.62,East,90,0.0,0.0,94,0.00,CLR,,0.00,WeatherDisplay:10.37,2013-02-09 11:06:00,
2013-02-09 03:11:00,37.8,36.2,29.62,East,90,0.0,0.0,94,0.00,CLR,,0.00,WeatherDisplay:10.37,2013-02-09 11:11:00,
2013-02-09 03:16:00,37.8,36.2,29.62,East,90,0.0,0.0,94,0.01,RA,,0.01,WeatherDisplay:10.37,2013-02-09 11:16:00,
2013-02-09 03:21:00,37.8,36.2,29.62,East,90,0.0,0.0,94,0.01,RA,,0.01,WeatherDisplay:10.37,2013-02-09 11:21:00,
2013-02-09 03:26:00,37.8,36.2,29.62,SE,135,0.0,0.0,94,0.01,,,0.01,WeatherDisplay:10.37,2013-02-09 11:26:00,
2013-02-09 03:31:00,37.8,36.2,29.62,East,90,0.0,0.0,94,0.01,CLR,,0.01,WeatherDisplay:10.37,2013-02-09 11:31:00,
2013-02-09 03:36:00,37.8,36.2,29.62,East,90,0.0,0.0,94,0.01,CLR,,0.01,WeatherDisplay:10.37,2013-02-09 11:36:00,
2013-02-09 03:41:00,37.8,36.2,29.62,East,90,0.0,0.0,94,0.01,CLR,,0.01,WeatherDisplay:10.37,2013-02-09 11:41:00,
2013-02-09 03:46:00,37.8,36.2,29.62,South,180,0.0,0.0,94,0.01,CLR,,0.01,WeatherDisplay:10.37,2013-02-09 11:46:00,
2013-02-09 03:51:00,37.8,36.2,29.62,South,180,0.0,0.0,94,0.01,CLR,,0.01,WeatherDisplay:10.37,2013-02-09 11:51:00,
2013-02-09 03:56:00,37.8,36.2,29.62,South,180,0.0,0.0,94,0.01,CLR,,0.01,WeatherDisplay:10.37,2013-02-09 11:56:00,
2013-02-09 04:01:00,37.6,36.0,29.62,South,180,0.0,0.0,94,0.01,CLR,,0.01,WeatherDisplay:10.37,2013-02-09 12:01:00,
2013-02-09 04:06:00,37.6,36.0,29.62,South,180,0.0,0.0,94,0.01,CLR,,0.01,WeatherDisplay:10.37,2013-02-09 12:06:00,
2013-02-09 04:11:00,37.6,36.0,29.62,South,180,0.0,0.0,94,0.01,CLR,,0.01,WeatherDisplay:10.37,2013-02-09 12:11:00,
2013-02-09 04:16:00,37.6,36.3,29.62,South,180,0.0,0.0,95,0.00,CLR,,0.01,WeatherDisplay:10.37,2013-02-09 12:16:00,
2013-02-09 04:21:00,37.6,36.3,29.62,South,180,0.0,0.0,95,0.00,CLR,,0.01,WeatherDisplay:10.37,2013-02-09 12:21:00,
2013-02-09 04:26:00,37.4,36.1,29.62,South,180,0.0,0.0,95,0.00,CLR,,0.01,WeatherDisplay:10.37,2013-02-09 12:26:00,
2013-02-09 04:31:00,37.4,36.1,29.62,South,180,0.0,0.0,95,0.00,CLR,,0.01,WeatherDisplay:10.37,2013-02-09 12:31:00,
2013-02-09 04:36:00,37.4,36.1,29.62,West,270,0.0,0.0,95,0.00,CLR,,0.01,WeatherDisplay:10.37,2013-02-09 12:36:00,
2013-02-09 04:41:00,37.4,36.1,29.62,West,270,0.0,0.0,95,0.00,CLR,,0.01,WeatherDisplay:10.37,2013-02-09 12:41:00,
2013-02-09 04:46:00,37.4,36.1,29.62,West,270,0.0,0.0,95,0.00,CLR,,0.01,WeatherDisplay:10.37,2013-02-09 12:46:00,
2013-02-09 04:51:00,37.4,36.1,29.62,West,270,0.0,0.0,95,0.00,CLR,,0.01,WeatherDisplay:10.37,2013-02-09 12:51:00,
2013-02-09 04:56:00,37.4,36.1,29.62,West,270,0.0,0.0,95,0.00,CLR,,0.01,WeatherDisplay:10.37,2013-02-09 12:56:00,
2013-02-09 05:01:00,37.4,36.1,29.62,West,270,0.0,0.0,95,0.00,CLR,,0.01,WeatherDisplay:10.37,2013-02-09 13:01:00,
2013-02-09 05:06:00,37.4,36.1,29.62,West,270,0.0,0.0,95,0.00,CLR,,0.01,WeatherDisplay:10.37,2013-02-09 13:06:00,
2013-02-09 05:11:00,37.4,36.1,29.62,West,270,0.0,0.0,95,0.00,CLR,,0.01,WeatherDisplay:10.37,2013-02-09 13:11:00,
2013-02-09 05:16:00,37.6,36.3,29.63,West,270,0.0,0.0,95,0.00,CLR,,0.01,WeatherDisplay:10.37,2013-02-09 13:16:00,
2013-02-09 05:21:00,37.6,36.3,29.63,West,270,0.0,0.0,95,0.00,CLR,,0.01,WeatherDisplay:10.37,2013-02-09 13:21:00,
2013-02-09 05:26:00,37.6,36.3,29.62,West,270,0.0,0.0,95,0.00,CLR,,0.01,WeatherDisplay:10.37,2013-02-09 13:26:00,
2013-02-09 05:31:00,37.6,36.3,29.62,West,270,0.0,0.0,95,0.00,CLR,,0.01,WeatherDisplay:10.37,2013-02-09 13:31:00,
2013-02-09 05:36:00,37.6,36.3,29.62,West,270,0.0,0.0,95,0.00,CLR,,0.01,WeatherDisplay:10.37,2013-02-09 13:36:00,
2013-02-09 05:41:00,37.4,36.1,29.62,West,270,0.0,0.0,95,0.00,CLR,,0.01,WeatherDisplay:10.37,2013-02-09 13:41:00,
2013-02-09 05:46:00,37.4,36.1,29.62,West,270,0.0,0.0,95,0.00,CLR,,0.01,WeatherDisplay:10.37,2013-02-09 13:46:00,
2013-02-09 05:51:00,37.4,36.1,29.62,West,270,0.0,0.0,95,0.00,CLR,,0.01,WeatherDisplay:10.37,2013-02-09 13:51:00,
2013-02-09 05:56:00,37.4,36.1,29.62,West,270,0.0,0.0,95,0.00,CLR,,0.01,WeatherDisplay:10.37,2013-02-09 13:56:00,
2013-02-09 06:01:00,37.4,36.1,29.62,West,270,0.0,0.0,95,0.00,CLR,,0.01,WeatherDisplay:10.37,2013-02-09 14:01:00,
2013-02-09 06:06:00,37.4,36.1,29.62,West,270,0.0,0.0,95,0.00,CLR,,0.01,WeatherDisplay:10.37,2013-02-09 14:06:00,
2013-02-09 06:11:00,37.4,36.1,29.62,West,270,0.0,0.0,95,0.00,CLR,,0.01,WeatherDisplay:10.37,2013-02-09 14:11:00,
2013-02-09 06:16:00,37.4,36.1,29.63,West,270,0.0,0.0,95,0.00,CLR,,0.01,WeatherDisplay:10.37,2013-02-09 14:16:00,
2013-02-09 06:21:00,37.4,36.1,29.62,West,270,0.0,0.0,95,0.00,CLR,,0.01,WeatherDisplay:10.37,2013-02-09 14:21:00,
2013-02-09 06:26:00,37.4,36.1,29.62,West,270,0.0,0.0,95,0.00,CLR,,0.01,WeatherDisplay:10.37,2013-02-09 14:26:00,
2013-02-09 06:31:00,37.4,36.1,29.62,West,270,0.0,0.0,95,0.00,CLR,,0.01,WeatherDisplay:10.37,2013-02-09 14:31:00,
2013-02-09 06:36:00,37.4,36.4,29.62,West,270,0.0,0.0,96,0.00,CLR,,0.01,WeatherDisplay:10.37,2013-02-09 14:36:00,
2013-02-09 06:41:00,37.4,36.4,29.63,West,270,0.0,0.0,96,0.00,CLR,,0.01,WeatherDisplay:10.37,2013-02-09 14:41:00,
2013-02-09 06:46:00,37.4,36.4,29.63,West,270,0.0,0.0,96,0.00,CLR,,0.01,WeatherDisplay:10.37,2013-02-09 14:46:00,
2013-02-09 06:51:00,37.4,36.4,29.62,West,270,0.0,0.0,96,0.00,CLR,,0.01,WeatherDisplay:10.37,2013-02-09 14:51:00,
2013-02-09 06:56:00,37.4,36.4,29.62,West,270,0.0,0.0,96,0.00,CLR,,0.01,WeatherDisplay:10.37,2013-02-09 14:56:00,
2013-02-09 07:01:00,37.4,36.4,29.63,West,270,0.0,0.0,96,0.00,CLR,,0.01,WeatherDisplay:10.37,2013-02-09 15:01:00,
2013-02-09 07:06:00,37.4,36.4,29.63,West,270,0.0,0.0,96,0.00,CLR,,0.01,WeatherDisplay:10.37,2013-02-09 15:06:00,
2013-02-09 07:11:00,37.4,36.4,29.62,West,270,0.0,0.0,96,0.00,CLR,,0.01,WeatherDisplay:10.37,2013-02-09 15:11:00,
2013-02-09 07:16:00,37.2,36.2,29.62,West,270,0.0,0.0,96,0.01,RA,,0.02,WeatherDisplay:10.37,2013-02-09 15:16:00,
2013-02-09 07:21:00,37.2,36.2,29.62,West,270,0.0,0.0,96,0.01,RA,,0.02,WeatherDisplay:10.37,2013-02-09 15:21:00,
2013-02-09 07:26:00,37.2,36.2,29.62,West,270,0.0,0.0,96,0.01,,,0.02,WeatherDisplay:10.37,2013-02-09 15:26:00,
2013-02-09 07:31:00,37.2,36.2,29.62,SW,225,0.0,0.0,96,0.01,CLR,,0.02,WeatherDisplay:10.37,2013-02-09 15:31:00,
2013-02-09 07:36:00,37.2,36.2,29.62,SW,225,0.0,0.0,96,0.01,CLR,,0.02,WeatherDisplay:10.37,2013-02-09 15:36:00,
2013-02-09 07:41:00,37.2,36.2,29.61,SW,225,0.0,0.0,96,0.01,CLR,,0.02,WeatherDisplay:10.37,2013-02-09 15:41:00,
2013-02-09 07:46:00,37.2,36.2,29.61,SW,225,0.0,0.0,96,0.01,CLR,,0.02,WeatherDisplay:10.37,2013-02-09 15:46:00,
2013-02-09 07:51:00,37.2,36.2,29.61,SW,225,0.0,0.0,96,0.01,CLR,,0.02,WeatherDisplay:10.37,2013-02-09 15:51:00,
2013-02-09 07:56:00,37.4,36.4,29.62,SW,225,0.0,0.0,96,0.01,CLR,,0.02,WeatherDisplay:10.37,2013-02-09 15:56:00,
2013-02-09 08:01:00,37.4,36.4,29.61,West,270,0.0,0.0,96,0.01,CLR,,0.02,WeatherDisplay:10.37,2013-02-09 16:01:00,
2013-02-09 08:07:00,37.4,36.4,29.62,West,270,0.0,0.0,96,0.01,CLR,,0.02,WeatherDisplay:10.37,2013-02-09 16:07:00,
2013-02-09 08:12:00,37.4,36.4,29.62,West,270,0.0,0.0,96,0.01,CLR,,0.02,WeatherDisplay:10.37,2013-02-09 16:12:00,
2013-02-09 08:17:00,37.4,36.4,29.62,West,270,0.0,0.0,96,0.00,CLR,,0.02,WeatherDisplay:10.37,2013-02-09 16:17:00,
2013-02-09 08:22:00,37.4,36.4,29.62,West,270,0.0,0.0,96,0.00,CLR,,0.02,WeatherDisplay:10.37,2013-02-09 16:22:00,
2013-02-09 08:27:00,37.4,36.4,29.62,West,270,0.0,0.0,96,0.00,CLR,,0.02,WeatherDisplay:10.37,2013-02-09 16:27:00,
2013-02-09 08:32:00,37.6,36.5,29.62,West,270,0.0,0.0,96,0.00,CLR,,0.02,WeatherDisplay:10.37,2013-02-09 16:32:00,
2013-02-09 08:37:00,37.6,36.5,29.62,West,270,0.0,0.0,96,0.00,CLR,,0.02,WeatherDisplay:10.37,2013-02-09 16:37:00,
2013-02-09 08:42:00,37.8,36.7,29.62,West,270,0.0,0.0,96,0.00,CLR,,0.02,WeatherDisplay:10.37,2013-02-09 16:42:00,
2013-02-09 08:47:00,37.9,36.9,29.63,West,270,0.0,0.0,96,0.00,CLR,,0.02,WeatherDisplay:10.37,2013-02-09 16:47:00,
2013-02-09 08:52:00,37.9,36.9,29.63,West,270,0.0,0.0,96,0.00,CLR,,0.02,WeatherDisplay:10.37,2013-02-09 16:52:00,
2013-02-09 08:57:00,38.1,37.1,29.63,West,270,0.0,0.0,96,0.00,CLR,,0.02,WeatherDisplay:10.37,2013-02-09 16:57:00,
2013-02-09 09:02:00,38.3,37.3,29.63,SW,225,0.0,0.0,96,0.00,CLR,,0.02,WeatherDisplay:10.37,2013-02-09 17:02:00,
2013-02-09 09:07:00,38.3,37.3,29.62,SW,225,0.0,0.0,96,0.01,RA,,0.04,WeatherDisplay:10.37,2013-02-09 17:07:00,
2013-02-09 09:12:00,38.5,37.7,29.62,SW,225,0.0,0.0,97,0.01,RA,,0.04,WeatherDisplay:10.37,2013-02-09 17:12:00,
2013-02-09 09:17:00,38.5,37.4,29.62,East,90,0.0,0.0,96,0.01,CLR,,0.04,WeatherDisplay:10.37,2013-02-09 17:17:00,
2013-02-09 09:22:00,38.7,37.6,29.63,South,180,0.0,0.0,96,0.01,CLR,,0.04,WeatherDisplay:10.37,2013-02-09 17:22:00,
2013-02-09 09:27:00,38.8,37.8,29.62,West,270,0.0,0.0,96,0.01,CLR,,0.04,WeatherDisplay:10.37,2013-02-09 17:27:00,
2013-02-09 09:32:00,38.8,37.8,29.63,West,270,0.0,0.0,96,0.01,CLR,,0.04,WeatherDisplay:10.37,2013-02-09 17:32:00,
2013-02-09 09:37:00,39.0,38.0,29.63,South,180,0.0,0.0,96,0.01,CLR,,0.04,WeatherDisplay:10.37,2013-02-09 17:37:00,
2013-02-09 09:42:00,39.2,38.2,29.63,East,90,0.0,0.0,96,0.01,CLR,,0.04,WeatherDisplay:10.37,2013-02-09 17:42:00,
2013-02-09 09:47:00,39.4,38.3,29.63,East,90,0.0,0.0,96,0.01,CLR,,0.04,WeatherDisplay:10.37,2013-02-09 17:47:00,
2013-02-09 09:52:00,39.4,38.3,29.63,East,90,0.0,0.0,96,0.01,CLR,,0.04,WeatherDisplay:10.37,2013-02-09 17:52:00,
2013-02-09 09:57:00,39.4,38.3,29.63,NE,45,0.0,0.0,96,0.01,CLR,,0.04,WeatherDisplay:10.37,2013-02-09 17:57:00,
2013-02-09 10:02:00,39.7,39.0,29.64,North,0,0.0,0.0,97,0.01,CLR,,0.05,WeatherDisplay:10.37,2013-02-09 18:02:00,
2013-02-09 10:07:00,39.7,38.7,29.63,SW,225,0.0,0.0,96,0.01,RA,,0.05,WeatherDisplay:10.37,2013-02-09 18:07:00,
2013-02-09 10:12:00,39.9,38.9,29.64,SW,225,0.0,0.0,96,0.01,RA,,0.05,WeatherDisplay:10.37,2013-02-09 18:12:00,
2013-02-09 10:17:00,39.9,38.9,29.64,SW,225,0.0,0.0,96,0.01,CLR,,0.05,WeatherDisplay:10.37,2013-02-09 18:17:00,
2013-02-09 10:22:00,39.9,38.9,29.64,SW,225,0.0,0.0,96,0.01,CLR,,0.05,WeatherDisplay:10.37,2013-02-09 18:22:00,
2013-02-09 10:27:00,40.1,39.1,29.64,SE,135,0.0,0.0,96,0.01,CLR,,0.05,WeatherDisplay:10.37,2013-02-09 18:27:00,
2013-02-09 10:32:00,40.3,39.2,29.64,SE,135,0.0,0.0,96,0.01,CLR,,0.05,WeatherDisplay:10.37,2013-02-09 18:32:00,
2013-02-09 10:37:00,40.3,39.2,29.64,SE,135,0.0,0.0,96,0.01,CLR,,0.05,WeatherDisplay:10.37,2013-02-09 18:37:00,
2013-02-09 10:42:00,40.3,39.2,29.64,SW,225,0.0,0.0,96,0.01,CLR,,0.06,WeatherDisplay:10.37,2013-02-09 18:42:00,
2013-02-09 10:47:00,40.3,39.2,29.64,East,90,0.0,0.0,96,0.02,RA,,0.06,WeatherDisplay:10.37,2013-02-09 18:47:00,
2013-02-09 10:52:00,40.5,39.4,29.64,East,90,0.0,0.0,96,0.02,RA,,0.06,WeatherDisplay:10.37,2013-02-09 18:52:00,
2013-02-09 10:58:00,40.5,39.4,29.64,SW,225,0.0,0.0,96,0.02,CLR,,0.06,WeatherDisplay:10.37,2013-02-09 18:58:00,
2013-02-09 11:03:00,40.5,39.4,29.64,SW,225,0.0,0.0,96,0.01,CLR,,0.06,WeatherDisplay:10.37,2013-02-09 19:03:00,
2013-02-09 11:08:00,40.6,39.6,29.64,SW,225,0.0,0.0,96,0.01,CLR,,0.06,WeatherDisplay:10.37,2013-02-09 19:08:00,
2013-02-09 11:13:00,40.5,39.4,29.64,West,270,0.0,0.0,96,0.01,CLR,,0.06,WeatherDisplay:10.37,2013-02-09 19:13:00,
2013-02-09 11:18:00,40.6,39.6,29.64,SW,225,0.0,0.0,96,0.01,CLR,,0.06,WeatherDisplay:10.37,2013-02-09 19:18:00,
2013-02-09 11:23:00,40.6,39.6,29.65,SW,225,0.0,0.0,96,0.01,CLR,,0.06,WeatherDisplay:10.37,2013-02-09 19:23:00,
2013-02-09 11:28:00,40.6,39.6,29.64,West,270,0.0,0.0,96,0.02,RA,,0.07,WeatherDisplay:10.37,2013-02-09 19:28:00,
2013-02-09 11:33:00,40.8,39.8,29.64,West,270,0.0,0.0,96,0.02,RA,,0.07,WeatherDisplay:10.37,2013-02-09 19:33:00,
2013-02-09 11:38:00,40.8,39.8,29.64,West,270,0.0,0.0,96,0.02,CLR,,0.07,WeatherDisplay:10.37,2013-02-09 19:38:00,
2013-02-09 11:43:00,40.8,39.8,29.64,West,270,0.0,0.0,96,0.01,CLR,,0.07,WeatherDisplay:10.37,2013-02-09 19:43:00,
2013-02-09 11:48:00,41.0,39.9,29.64,West,270,0.0,0.0,96,0.01,CLR,,0.07,WeatherDisplay:10.37,2013-02-09 19:48:00,
2013-02-09 11:53:00,41.2,40.1,29.63,South,180,0.0,0.0,96,0.01,CLR,,0.07,WeatherDisplay:10.37,2013-02-09 19:53:00,
2013-02-09 11:58:00,41.2,40.1,29.63,South,180,0.0,0.0,96,0.01,CLR,,0.07,WeatherDisplay:10.37,2013-02-09 19:58:00,
2013-02-09 12:03:00,41.2,40.1,29.63,South,180,0.0,0.0,96,0.01,CLR,,0.07,WeatherDisplay:10.37,2013-02-09 20:03:00,
2013-02-09 12:08:00,41.2,40.1,29.63,NW,315,0.0,0.0,96,0.01,CLR,,0.07,WeatherDisplay:10.37,2013-02-09 20:08:00,
2013-02-09 12:13:00,41.2,40.1,29.63,West,270,0.0,0.0,96,0.01,CLR,,0.07,WeatherDisplay:10.37,2013-02-09 20:13:00,
2013-02-09 12:18:00,41.0,39.9,29.63,West,270,0.0,0.0,96,0.01,CLR,,0.07,WeatherDisplay:10.37,2013-02-09 20:18:00,
2013-02-09 12:23:00,41.0,39.9,29.64,West,270,0.0,0.0,96,0.01,CLR,,0.07,WeatherDisplay:10.37,2013-02-09 20:23:00,
2013-02-09 12:28:00,41.0,39.9,29.63,West,270,0.0,0.0,96,0.00,CLR,,0.07,WeatherDisplay:10.37,2013-02-09 20:28:00,
2013-02-09 12:33:00,41.2,40.1,29.63,West,270,0.0,0.0,96,0.00,CLR,,0.07,WeatherDisplay:10.37,2013-02-09 20:33:00,
2013-02-09 12:38:00,41.2,40.1,29.63,West,270,0.0,0.0,96,0.00,CLR,,0.07,WeatherDisplay:10.37,2013-02-09 20:38:00,
2013-02-09 12:43:00,41.2,40.1,29.64,NW,315,0.0,0.0,96,0.00,CLR,,0.07,WeatherDisplay:10.37,2013-02-09 20:43:00,
2013-02-09 12:48:00,41.2,40.1,29.63,East,90,0.0,0.0,96,0.00,CLR,,0.07,WeatherDisplay:10.37,2013-02-09 20:48:00,
2013-02-09 12:53:00,41.2,40.1,29.63,East,90,0.0,0.0,96,0.00,CLR,,0.07,WeatherDisplay:10.37,2013-02-09 20:53:00,
2013-02-09 12:58:00,41.2,40.1,29.63,South,180,0.0,0.0,96,0.00,CLR,,0.07,WeatherDisplay:10.37,2013-02-09 20:58:00,
2013-02-09 13:03:00,41.5,40.5,29.63,South,180,0.0,0.0,96,0.00,CLR,,0.07,WeatherDisplay:10.37,2013-02-09 21:03:00,
2013-02-09 13:08:00,41.5,40.5,29.63,South,180,0.0,0.0,96,0.00,CLR,,0.07,WeatherDisplay:10.37,2013-02-09 21:08:00,
2013-02-09 13:13:00,41.7,40.7,29.63,North,0,0.0,0.0,96,0.00,CLR,,0.07,WeatherDisplay:10.37,2013-02-09 21:13:00,
2013-02-09 13:18:00,41.9,40.8,29.63,East,90,0.0,0.0,96,0.00,CLR,,0.07,WeatherDisplay:10.37,2013-02-09 21:18:00,
2013-02-09 13:23:00,42.1,41.0,29.63,East,90,0.0,0.0,96,0.00,CLR,,0.07,WeatherDisplay:10.37,2013-02-09 21:23:00,
2013-02-09 13:28:00,42.4,41.4,29.63,West,270,0.0,0.0,96,0.01,RA,,0.08,WeatherDisplay:10.37,2013-02-09 21:28:00,
2013-02-09 13:33:00,42.4,41.4,29.63,SE,135,0.0,0.0,96,0.01,RA,,0.08,WeatherDisplay:10.37,2013-02-09 21:33:00,
2013-02-09 13:38:00,42.6,41.6,29.63,NE,45,0.0,0.0,96,0.01,CLR,,0.08,WeatherDisplay:10.37,2013-02-09 21:38:00,
2013-02-09 13:43:00,42.6,41.3,29.62,NE,45,0.0,0.0,95,0.01,CLR,,0.08,WeatherDisplay:10.37,2013-02-09 21:43:00,
2013-02-09 13:48:00,42.6,41.3,29.62,East,90,0.0,0.0,95,0.01,CLR,,0.08,WeatherDisplay:10.37,2013-02-09 21:48:00,
2013-02-09 13:53:00,42.6,41.3,29.62,SW,225,0.0,0.0,95,0.01,CLR,,0.08,WeatherDisplay:10.37,2013-02-09 21:53:00,
2013-02-09 13:58:00,42.8,41.5,29.62,East,90,0.0,0.0,95,0.01,CLR,,0.08,WeatherDisplay:10.37,2013-02-09 21:58:00,
2013-02-09 14:03:00,42.8,41.5,29.62,East,90,0.0,0.0,95,0.01,CLR,,0.08,WeatherDisplay:10.37,2013-02-09 22:03:00,
2013-02-09 14:08:00,42.8,41.5,29.62,East,90,0.0,0.0,95,0.01,CLR,,0.08,WeatherDisplay:10.37,2013-02-09 22:08:00,
2013-02-09 14:13:00,43.0,41.4,29.62,South,180,0.0,0.0,94,0.01,CLR,,0.08,WeatherDisplay:10.37,2013-02-09 22:13:00,
2013-02-09 14:18:00,43.2,41.8,29.62,SW,225,0.0,0.0,95,0.01,CLR,,0.08,WeatherDisplay:10.37,2013-02-09 22:18:00,
2013-02-09 14:23:00,43.3,41.7,29.62,SE,135,0.0,0.0,94,0.01,CLR,,0.08,WeatherDisplay:10.37,2013-02-09 22:23:00,
2013-02-09 14:28:00,43.3,41.7,29.62,East,90,0.0,0.0,94,0.00,CLR,,0.08,WeatherDisplay:10.37,2013-02-09 22:28:00,
2013-02-09 14:33:00,43.3,41.7,29.62,SE,135,0.0,0.0,94,0.00,CLR,,0.08,WeatherDisplay:10.37,2013-02-09 22:33:00,
2013-02-09 14:38:00,43.3,41.7,29.62,NE,45,0.0,0.0,94,0.00,CLR,,0.08,WeatherDisplay:10.37,2013-02-09 22:38:00,
2013-02-09 14:43:00,43.3,41.5,29.62,SW,225,0.0,0.0,93,0.00,CLR,,0.08,WeatherDisplay:10.37,2013-02-09 22:43:00,
2013-02-09 14:48:00,43.3,41.5,29.62,SW,225,0.0,0.0,93,0.00,CLR,,0.08,WeatherDisplay:10.37,2013-02-09 22:48:00,
2013-02-09 14:53:00,43.3,41.2,29.62,SW,225,0.0,0.0,92,0.00,CLR,,0.08,WeatherDisplay:10.37,2013-02-09 22:53:00,
2013-02-09 14:58:00,43.3,41.2,29.62,West,270,0.0,0.0,92,0.00,CLR,,0.08,WeatherDisplay:10.37,2013-02-09 22:58:00,
2013-02-09 15:03:00,43.2,41.0,29.63,West,270,0.0,0.0,92,0.00,CLR,,0.08,WeatherDisplay:10.37,2013-02-09 23:03:00,
2013-02-09 15:08:00,43.2,41.0,29.63,NW,315,0.0,0.0,92,0.00,CLR,,0.08,WeatherDisplay:10.37,2013-02-09 23:08:00,
2013-02-09 15:13:00,43.2,41.0,29.62,West,270,0.0,0.0,92,0.00,CLR,,0.08,WeatherDisplay:10.37,2013-02-09 23:13:00,
2013-02-09 15:18:00,43.2,41.0,29.63,SW,225,0.0,0.0,92,0.00,CLR,,0.08,WeatherDisplay:10.37,2013-02-09 23:18:00,
2013-02-09 15:23:00,43.2,41.0,29.63,SW,225,0.0,0.0,92,0.00,CLR,,0.08,WeatherDisplay:10.37,2013-02-09 23:23:00,
2013-02-09 15:28:00,43.0,40.8,29.63,NW,315,0.0,0.0,92,0.00,CLR,,0.08,WeatherDisplay:10.37,2013-02-09 23:28:00,
2013-02-09 15:33:00,42.8,40.4,29.63,West,270,0.0,0.0,91,0.00,CLR,,0.08,WeatherDisplay:10.37,2013-02-09 23:33:00,
2013-02-09 15:38:00,42.6,40.2,29.64,West,270,0.0,0.0,91,0.00,CLR,,0.08,WeatherDisplay:10.37,2013-02-09 23:38:00,
2013-02-09 15:43:00,42.6,40.2,29.64,West,270,0.0,0.0,91,0.00,CLR,,0.08,WeatherDisplay:10.37,2013-02-09 23:43:00,
2013-02-09 15:48:00,42.6,40.5,29.64,North,0,0.0,0.0,92,0.00,CLR,,0.08,WeatherDisplay:10.37,2013-02-09 23:48:00,
2013-02-09 15:53:00,42.6,40.5,29.64,North,0,0.0,0.0,92,0.00,CLR,,0.08,WeatherDisplay:10.37,2013-02-09 23:53:00,
2013-02-09 15:58:00,42.6,40.5,29.64,North,0,0.0,0.0,92,0.00,CLR,,0.08,WeatherDisplay:10.37,2013-02-09 23:58:00,
2013-02-09 16:03:00,42.6,40.5,29.64,North,0,0.0,0.0,92,0.00,RA,,0.00,WeatherDisplay:10.37,2013-02-10 00:03:00,
2013-02-09 16:08:00,42.4,40.3,29.64,North,0,0.0,0.0,92,0.00,RA,,0.00,WeatherDisplay:10.37,2013-02-10 00:08:00,
2013-02-09 16:13:00,42.3,40.1,29.63,North,0,0.0,0.0,92,0.00,CLR,,0.00,WeatherDisplay:10.37,2013-02-10 00:13:00,
2013-02-09 16:19:00,42.3,40.1,29.63,North,0,0.0,0.0,92,0.00,CLR,,0.00,WeatherDisplay:10.37,2013-02-10 00:19:00,
2013-02-09 16:24:00,42.1,39.9,29.63,North,0,0.0,0.0,92,0.00,CLR,,0.00,WeatherDisplay:10.37,2013-02-10 00:24:00,
2013-02-09 16:29:00,42.1,39.9,29.64,North,0,0.0,0.0,92,0.00,CLR,,0.00,WeatherDisplay:10.37,2013-02-10 00:29:00,
2013-02-09 16:34:00,42.1,39.9,29.64,North,0,0.0,0.0,92,0.00,CLR,,0.00,WeatherDisplay:10.37,2013-02-10 00:34:00,
2013-02-09 16:39:00,41.9,39.7,29.64,North,0,0.0,0.0,92,0.00,CLR,,0.00,WeatherDisplay:10.37,2013-02-10 00:39:00,
2013-02-09 16:44:00,41.9,39.7,29.64,North,0,0.0,0.0,92,0.00,CLR,,0.00,WeatherDisplay:10.37,2013-02-10 00:44:00,
2013-02-09 16:49:00,41.7,39.8,29.64,North,0,0.0,0.0,93,0.00,CLR,,0.00,WeatherDisplay:10.37,2013-02-10 00:49:00,
2013-02-09 16:54:00,41.7,39.8,29.64,North,0,0.0,0.0,93,0.00,CLR,,0.00,WeatherDisplay:10.37,2013-02-10 00:54:00,
2013-02-09 16:59:00,41.5,39.7,29.65,North,0,0.0,0.0,93,0.00,CLR,,0.00,WeatherDisplay:10.37,2013-02-10 00:59:00,
2013-02-09 17:04:00,41.5,39.7,29.65,North,0,0.0,0.0,93,0.00,CLR,,0.00,WeatherDisplay:10.37,2013-02-10 01:04:00,
2013-02-09 17:09:00,41.4,39.5,29.65,North,0,0.0,0.0,93,0.00,CLR,,0.00,WeatherDisplay:10.37,2013-02-10 01:09:00,
2013-02-09 17:14:00,41.4,39.5,29.65,North,0,0.0,0.0,93,0.00,CLR,,0.00,WeatherDisplay:10.37,2013-02-10 01:14:00,
2013-02-09 17:19:00,41.2,39.3,29.65,North,0,0.0,0.0,93,0.00,CLR,,0.00,WeatherDisplay:10.37,2013-02-10 01:19:00,
2013-02-09 17:24:00,41.2,39.3,29.65,North,0,0.0,0.0,93,0.00,CLR,,0.00,WeatherDisplay:10.37,2013-02-10 01:24:00,
2013-02-09 17:29:00,41.2,39.3,29.65,North,0,0.0,0.0,93,0.00,CLR,,0.00,WeatherDisplay:10.37,2013-02-10 01:29:00,
2013-02-09 17:34:00,41.2,39.3,29.65,North,0,0.0,0.0,93,0.00,CLR,,0.00,WeatherDisplay:10.37,2013-02-10 01:34:00,
2013-02-09 17:39:00,41.0,39.1,29.65,NE,45,0.0,0.0,93,0.00,CLR,,0.00,WeatherDisplay:10.37,2013-02-10 01:39:00,
2013-02-09 17:44:00,41.0,39.4,29.65,East,90,0.0,0.0,94,0.00,CLR,,0.00,WeatherDisplay:10.37,2013-02-10 01:44:00,
2013-02-09 17:49:00,41.0,39.4,29.65,East,90,0.0,0.0,94,0.00,CLR,,0.00,WeatherDisplay:10.37,2013-02-10 01:49:00,
2013-02-09 17:54:00,41.0,39.4,29.65,East,90,0.0,0.0,94,0.00,CLR,,0.00,WeatherDisplay:10.37,2013-02-10 01:54:00,
2013-02-09 17:59:00,41.0,39.4,29.65,East,90,0.0,0.0,94,0.00,CLR,,0.00,WeatherDisplay:10.37,2013-02-10 01:59:00,
2013-02-09 18:04:00,41.0,39.4,29.65,East,90,0.0,0.0,94,0.00,CLR,,0.00,WeatherDisplay:10.37,2013-02-10 02:04:00,
2013-02-09 18:09:00,40.8,39.2,29.65,East,90,0.0,0.0,94,0.00,CLR,,0.00,WeatherDisplay:10.37,2013-02-10 02:09:00,
2013-02-09 18:14:00,40.8,39.2,29.65,East,90,0.0,0.0,94,0.00,CLR,,0.00,WeatherDisplay:10.37,2013-02-10 02:14:00,
2013-02-09 18:19:00,40.8,39.2,29.65,East,90,0.0,0.0,94,0.00,CLR,,0.00,WeatherDisplay:10.37,2013-02-10 02:19:00,
2013-02-09 18:24:00,40.6,39.0,29.65,East,90,0.0,0.0,94,0.00,CLR,,0.00,WeatherDisplay:10.37,2013-02-10 02:24:00,
2013-02-09 18:29:00,40.5,38.9,29.65,East,90,0.0,0.0,94,0.00,CLR,,0.00,WeatherDisplay:10.37,2013-02-10 02:29:00,
2013-02-09 18:34:00,40.5,38.9,29.65,East,90,0.0,0.0,94,0.00,CLR,,0.00,WeatherDisplay:10.37,2013-02-10 02:34:00,
2013-02-09 18:39:00,40.5,38.9,29.65,East,90,0.0,0.0,94,0.00,CLR,,0.00,WeatherDisplay:10.37,2013-02-10 02:39:00,
2013-02-09 18:44:00,40.5,38.9,29.65,East,90,0.0,0.0,94,0.00,CLR,,0.00,WeatherDisplay:10.37,2013-02-10 02:44:00,
2013-02-09 18:50:00,40.5,38.9,29.65,East,90,0.0,0.0,94,0.00,CLR,,0.00,WeatherDisplay:10.37,2013-02-10 02:50:00,
2013-02-09 18:55:00,40.3,38.7,29.65,East,90,0.0,0.0,94,0.00,CLR,CLR,0.00,WeatherDisplay:10.37,2013-02-10 02:55:00,
2013-02-09 18:59:00,40.3,39.0,29.65,East,90,0.0,0.0,95,0.00,CLR,,0.00,WeatherDisplay:10.37,2013-02-10 02:59:00,
2013-02-09 19:04:00,40.3,39.0,29.65,East,90,0.0,0.0,95,0.00,CLR,,0.00,WeatherDisplay:10.37,2013-02-10 03:04:00,
2013-02-09 19:09:00,40.3,39.0,29.65,East,90,0.0,0.0,95,0.00,CLR,,0.00,WeatherDisplay:10.37,2013-02-10 03:09:00,
2013-02-09 19:15:00,40.1,38.8,29.65,East,90,0.0,0.0,95,0.00,CLR,,0.00,WeatherDisplay:10.37,2013-02-10 03:15:00,
2013-02-09 19:20:00,40.1,38.8,29.65,East,90,0.0,0.0,95,0.00,CLR,,0.00,WeatherDisplay:10.37,2013-02-10 03:20:00,
2013-02-09 19:25:00,40.1,38.8,29.65,East,90,0.0,0.0,95,0.00,CLR,CLR,0.00,WeatherDisplay:10.37,2013-02-10 03:25:00,
2013-02-09 19:30:00,40.1,38.8,29.65,East,90,0.0,0.0,95,0.00,CLR,,0.00,WeatherDisplay:10.37,2013-02-10 03:30:00,
2013-02-09 19:35:00,39.9,38.6,29.65,East,90,0.0,0.0,95,0.00,CLR,CLR,0.00,WeatherDisplay:10.37,2013-02-10 03:35:00,
2013-02-09 19:40:00,39.9,38.6,29.65,East,90,0.0,0.0,95,0.00,CLR,,0.00,WeatherDisplay:10.37,2013-02-10 03:40:00,
2013-02-09 19:45:00,39.7,38.4,29.65,East,90,0.0,0.0,95,0.00,CLR,CLR,0.00,WeatherDisplay:10.37,2013-02-10 03:45:00,
2013-02-09 19:50:00,39.7,38.4,29.65,East,90,0.0,0.0,95,0.00,CLR,,0.00,WeatherDisplay:10.37,2013-02-10 03:50:00,
2013-02-09 19:55:00,39.7,38.4,29.65,East,95,0.0,0.0,95,0.00,CLR,CLR,0.00,WeatherDisplay:10.37,2013-02-10 03:55:00,
2013-02-09 20:00:00,39.7,38.4,29.66,South,180,0.0,0.0,95,0.00,CLR,,0.00,WeatherDisplay:10.37,2013-02-10 04:00:00,
2013-02-09 20:05:00,39.7,38.4,29.65,South,180,0.0,0.0,95,0.00,CLR,CLR,0.00,WeatherDisplay:10.37,2013-02-10 04:05:00,
2013-02-09 20:10:00,39.7,38.7,29.66,South,180,0.0,0.0,96,0.00,CLR,CLR,0.00,WeatherDisplay:10.37,2013-02-10 04:10:00,
2013-02-09 20:15:00,39.7,38.4,29.66,South,180,0.0,0.0,95,0.00,CLR,,0.00,WeatherDisplay:10.37,2013-02-10 04:15:00,
2013-02-09 20:20:00,39.7,38.7,29.66,South,180,0.0,0.0,96,0.00,CLR,CLR,0.00,WeatherDisplay:10.37,2013-02-10 04:20:00,
2013-02-09 20:25:00,39.7,38.7,29.66,SSE,158,0.0,0.0,96,0.00,CLR,CLR,0.00,WeatherDisplay:10.37,2013-02-10 04:25:00,
2013-02-09 20:30:00,39.7,38.7,29.67,SE,135,0.0,0.0,96,0.00,CLR,,0.00,WeatherDisplay:10.37,2013-02-10 04:30:00,
2013-02-09 20:35:00,39.6,38.5,29.67,SE,135,0.0,0.0,96,0.00,CLR,CLR,0.00,WeatherDisplay:10.37,2013-02-10 04:35:00,
2013-02-09 20:40:00,39.6,38.5,29.66,SE,135,0.0,0.0,96,0.00,CLR,,0.00,WeatherDisplay:10.37,2013-02-10 04:40:00,
2013-02-09 20:45:00,39.6,38.5,29.66,SE,135,0.0,0.0,96,0.00,CLR,CLR,0.00,WeatherDisplay:10.37,2013-02-10 04:45:00,
2013-02-09 20:50:00,39.6,38.5,29.67,SE,135,0.0,0.0,96,0.00,CLR,CLR,0.00,WeatherDisplay:10.37,2013-02-10 04:50:00,
2013-02-09 20:55:00,39.4,38.3,29.67,SE,135,0.0,0.0,96,0.00,CLR,,0.00,WeatherDisplay:10.37,2013-02-10 04:55:00,
2013-02-09 21:00:00,39.4,38.3,29.66,SE,135,0.0,0.0,96,0.00,CLR,,0.00,WeatherDisplay:10.37,2013-02-10 05:00:00,
2013-02-09 21:05:00,39.4,38.3,29.66,SE,135,0.0,0.0,96,0.00,CLR,,0.00,WeatherDisplay:10.37,2013-02-10 05:05:00,
2013-02-09 21:10:00,39.2,38.2,29.67,SE,135,0.0,0.0,96,0.00,CLR,,0.00,WeatherDisplay:10.37,2013-02-10 05:10:00,
2013-02-09 21:15:00,39.2,38.2,29.67,SE,135,0.0,0.0,96,0.00,CLR,,0.00,WeatherDisplay:10.37,2013-02-10 05:15:00,
2013-02-09 21:20:00,39.2,38.2,29.67,SE,135,0.0,0.0,96,0.00,CLR,,0.00,WeatherDisplay:10.37,2013-02-10 05:20:00,
2013-02-09 21:25:00,39.2,38.2,29.67,SE,135,0.0,0.0,96,0.00,CLR,,0.00,WeatherDisplay:10.37,2013-02-10 05:25:00,
2013-02-09 21:30:00,39.0,38.0,29.67,SE,135,0.0,0.0,96,0.00,CLR,,0.00,WeatherDisplay:10.37,2013-02-10 05:30:00,
2013-02-09 21:35:00,38.7,37.6,29.67,SE,135,0.0,0.0,96,0.00,CLR,,0.00,WeatherDisplay:10.37,2013-02-10 05:35:00,
2013-02-09 21:40:00,38.3,37.3,29.68,SE,135,0.0,0.0,96,0.00,CLR,,0.00,WeatherDisplay:10.37,2013-02-10 05:40:00,
2013-02-09 21:45:00,38.1,37.1,29.68,SE,135,0.0,0.0,96,0.00,CLR,,0.00,WeatherDisplay:10.37,2013-02-10 05:45:00,
2013-02-09 21:50:00,37.9,36.9,29.68,SE,135,0.0,0.0,96,0.00,CLR,,0.00,WeatherDisplay:10.37,2013-02-10 05:50:00,
2013-02-09 21:55:00,37.8,36.7,29.68,SE,135,0.0,0.0,96,0.00,CLR,,0.00,WeatherDisplay:10.37,2013-02-10 05:55:00,
2013-02-09 22:00:00,37.9,36.9,29.68,SE,135,0.0,0.0,96,0.00,CLR,,0.00,WeatherDisplay:10.37,2013-02-10 06:00:00,
2013-02-09 22:05:00,37.9,36.9,29.68,SE,135,0.0,0.0,96,0.00,CLR,,0.00,WeatherDisplay:10.37,2013-02-10 06:05:00,
2013-02-09 22:10:00,38.1,37.1,29.68,SE,135,0.0,0.0,96,0.00,CLR,,0.00,WeatherDisplay:10.37,2013-02-10 06:10:00,
2013-02-09 22:15:00,38.1,37.1,29.69,SE,135,0.0,0.0,96,0.00,CLR,,0.00,WeatherDisplay:10.37,2013-02-10 06:15:00,
2013-02-09 22:20:00,38.1,37.1,29.69,SE,135,0.0,0.0,96,0.00,CLR,,0.00,WeatherDisplay:10.37,2013-02-10 06:20:00,
2013-02-09 22:25:00,38.3,37.5,29.69,SE,135,0.0,0.0,97,0.00,CLR,,0.00,WeatherDisplay:10.37,2013-02-10 06:25:00,
2013-02-09 22:30:00,38.5,37.4,29.69,East,90,0.0,0.0,96,0.00,CLR,,0.00,WeatherDisplay:10.37,2013-02-10 06:30:00,
2013-02-09 22:35:00,38.5,37.4,29.68,East,90,0.0,0.0,96,0.00,CLR,,0.00,WeatherDisplay:10.37,2013-02-10 06:35:00,
2013-02-09 22:40:00,38.5,37.4,29.69,East,90,0.0,0.0,96,0.00,CLR,,0.00,WeatherDisplay:10.37,2013-02-10 06:40:00,
2013-02-09 22:45:00,38.5,37.7,29.69,East,90,0.0,0.0,97,0.00,CLR,,0.00,WeatherDisplay:10.37,2013-02-10 06:45:00,
2013-02-09 22:50:00,38.5,37.7,29.69,East,90,0.0,0.0,97,0.00,CLR,,0.00,WeatherDisplay:10.37,2013-02-10 06:50:00,
2013-02-09 22:55:00,38.5,37.4,29.69,East,90,0.0,0.0,96,0.00,CLR,,0.00,WeatherDisplay:10.37,2013-02-10 06:55:00,
2013-02-09 23:00:00,38.5,37.7,29.69,East,90,0.0,0.0,97,0.00,CLR,,0.00,WeatherDisplay:10.37,2013-02-10 07:00:00,
2013-02-09 23:05:00,38.5,37.7,29.69,East,90,0.0,0.0,97,0.00,CLR,,0.00,WeatherDisplay:10.37,2013-02-10 07:05:00,
2013-02-09 23:10:00,38.5,37.7,29.69,East,90,0.0,0.0,97,0.00,CLR,,0.00,WeatherDisplay:10.37,2013-02-10 07:10:00,
2013-02-09 23:15:00,38.5,37.7,29.69,East,90,0.0,0.0,97,0.00,CLR,,0.00,WeatherDisplay:10.37,2013-02-10 07:15:00,
2013-02-09 23:20:00,38.5,37.7,29.69,East,90,0.0,0.0,97,0.00,CLR,,0.00,WeatherDisplay:10.37,2013-02-10 07:20:00,
2013-02-09 23:25:00,38.5,37.7,29.69,East,90,0.0,0.0,97,0.00,CLR,,0.00,WeatherDisplay:10.37,2013-02-10 07:25:00,
2013-02-09 23:30:00,38.7,37.9,29.69,East,90,0.0,0.0,97,0.00,CLR,,0.00,WeatherDisplay:10.37,2013-02-10 07:30:00,
2013-02-09 23:35:00,38.7,37.9,29.69,East,90,0.0,0.0,97,0.00,CLR,,0.00,WeatherDisplay:10.37,2013-02-10 07:35:00,
2013-02-09 23:41:00,38.7,37.9,29.69,East,90,0.0,0.0,97,0.00,CLR,,0.00,WeatherDisplay:10.37,2013-02-10 07:41:00,
2013-02-09 23:46:00,38.7,37.9,29.69,East,90,0.0,0.0,97,0.00,CLR,,0.00,WeatherDisplay:10.37,2013-02-10 07:46:00,
2013-02-09 23:51:00,38.5,37.7,29.69,SE,135,0.0,0.0,97,0.00,CLR,,0.00,WeatherDisplay:10.37,2013-02-10 07:51:00,
2013-02-09 23:56:00,38.3,37.5,29.69,SE,135,0.0,0.0,97,0.00,CLR,,0.00,WeatherDisplay:10.37,2013-02-10 07:56:00,